This demonstration page uses our WeatherBlox Daily Observations layout. Learn more.

Left ArrowRight Arrow

Hourly Observations for August 10, 2022

Temp ( °F °C ) Dew Point ( °F °C ) Humidity (%) Winds ( mph kmh ) Pressure ( in mb ) Visibility ( mi km ) Precip ( " mm )
12:06 am 00:06 Cloudy with Rain 74 23.3 71 21.7 91 91 VRB 6 9 30.14 1021 6 10 0.03 0.76
12:53 am 00:53 Partly Cloudy with Light Rain 73 22.8 71 21.7 94 94 Calm 30.12 1020 8 13 0.06 1.52
1:53 am 01:53 Partly Cloudy with Light Rain 73 22.8 72 22.2 96 96 Calm 30.12 1020 10 16 0.04 1.02
2:53 am 02:53 Mostly Clear with Light Rain 74 23.3 71 21.7 91 91 Calm 30.11 1020 10 16 0.02 0.51
3:28 am 03:28 Partly Cloudy with Light Rain 73 22.8 72 22.2 96 96 Calm 30.11 1020 10 16 0.01 0.25
3:53 am 03:53 Clear with Light Rain 73 22.8 72 22.2 96 96 Calm 30.12 1020 10 16 0.02 0.51
4:22 am 04:22 Mostly Cloudy with Light Rain 73 22.8 72 22.2 96 96 Calm 30.12 1020 10 16 0.01 0.25
4:34 am 04:34 Mostly Cloudy with Light Rain 73 22.8 72 22.2 96 96 SE 3 6 30.13 1020 10 16 0.01 0.25
4:42 am 04:42 Mostly Cloudy with Light Rain 73 22.8 72 22.2 96 96 SSE 5 7 30.13 1020 10 16 0.01 0.25
4:53 am 04:53 Mostly Clear 73 22.8 72 22.2 96 96 SSE 8 13 30.14 1021 10 16 0.01 0.25
5:22 am 05:22 Mostly Cloudy 73 22.8 71 21.7 94 94 S 7 11 30.14 1021 10 16 0.00 0.00
5:53 am 05:53 Cloudy 72 22.2 71 21.7 97 97 Calm 30.15 1021 10 16 0.00 0.00
6:53 am 06:53 Cloudy 72 22.2 70 21.1 93 93 SSW 5 7 30.16 1021 10 16 0.00 0.00
7:53 am 07:53 Cloudy with Light Rain 72 22.2 71 21.7 97 97 SSW 3 6 30.18 1022 5 8 0.08 2.03
8:53 am 08:53 Mostly Cloudy 72 22.2 70 21.1 93 93 SW 5 7 30.18 1022 7 11 0.01 0.25
9:53 am 09:53 Mostly Cloudy 74 23.3 72 22.2 94 94 WSW 6 9 30.18 1022 10 16 0.00 0.00
10:43 am 10:43 Mostly Cloudy 77 25 72 22.2 84 84 SW 3 6 30.17 1022 10 16 0.00 0.00
10:53 am 10:53 Mostly Cloudy 78 25.6 73 22.8 85 85 undefined N/A 30.18 1022 10 16 0.00 0.00
11:45 am 11:45 Mostly Cloudy 79 26.1 73 22.8 82 82 SW 6 9 30.19 1022 10 16 0.00 0.00
11:53 am 11:53 Mostly Cloudy 80 26.7 72 22.2 76 76 SW 6 9 30.19 1023 10 16 0.00 0.00
12:53 pm 12:53 Mostly Cloudy 81 27.2 71 21.7 72 72 VRB 6 9 30.19 1022 10 16 0.00 0.00
1:12 pm 13:12 Mostly Cloudy with Thunderstorms 82 27.8 72 22.2 72 72 SW 6 9 30.16 1021 10 16 0.00 0.00
1:27 pm 13:27 Mostly Cloudy 82 27.8 72 22.2 72 72 SW 7 11 30.16 1021 10 16 0.00 0.00
1:53 pm 13:53 Mostly Cloudy 83 28.3 69 20.6 63 63 VRB 5 7 30.16 1022 10 16 0.00 0.00
2:00 pm 14:00 Mostly Cloudy 83 28.3 70 21.1 65 65 VRB 6 9 30.14 1021 10 16 0.00 0.00
2:53 pm 14:53 Mostly Cloudy 85 29.4 71 21.7 63 63 W 5 7 30.13 1020 10 16 0.00 0.00
3:10 pm 15:10 Mostly Cloudy with Nearby Thunderstorms 86 30 72 22.2 63 63 undefined N/A 30.10 1019 10 16 0.00 0.00
3:17 pm 15:17 Mostly Cloudy with Nearby Thunderstorms 85 29.4 72 22.2 65 65 NNW 7 11 30.10 1019 10 16 0.00 0.00
3:35 pm 15:35 Mostly Cloudy 81 27.2 71 21.7 72 72 WNW 12 19 30.11 1020 10 16 0.00 0.00
3:53 pm 15:53 Mostly Cloudy with Light Rain 78 25.6 72 22.2 82 82 NW 6 9 30.12 1020 10 16 0.01 0.13
4:10 pm 16:10 Mostly Cloudy with Thunderstorms 78 25.6 72 22.2 82 82 NW 3 6 30.11 1020 10 16 0.01 0.13
4:25 pm 16:25 Cloudy with Light Rain 79 26.1 72 22.2 79 79 NNE 5 7 30.10 1019 10 16 0.01 0.13
4:53 pm 16:53 Mostly Sunny 81 27.2 73 22.8 77 77 Calm 30.10 1019 10 16 0.01 0.13
5:53 pm 17:53 Sunny 82 27.8 71 21.7 69 69 Calm 30.09 1019 10 16 0.00 0.00
6:17 pm 18:17 Mostly Sunny 84 28.9 72 22.2 67 67 Calm 30.07 1018 10 16 0.00 0.00
6:53 pm 18:53 Sunny 83 28.3 72 22.2 70 70 VRB 5 7 30.09 1019 10 16 0.00 0.00
7:53 pm 19:53 Sunny 83 28.3 72 22.2 70 70 SSW 5 7 30.09 1019 10 16 0.00 0.00
8:44 pm 20:44 Cloudy with Nearby Thunderstorms 80 26.7 69 20.6 69 69 SSW 3 6 30.08 1019 10 16 0.00 0.00
8:53 pm 20:53 Cloudy 80 26.7 69 20.6 69 69 SW 3 6 30.09 1019 10 16 0.00 0.00
9:05 pm 21:05 Mostly Cloudy with Nearby Thunderstorms 79 26.1 69 20.6 72 72 SSW 6 9 30.09 1019 10 16 0.00 0.00
9:20 pm 21:20 Mostly Cloudy 78 25.6 71 21.7 79 79 S 6 9 30.10 1019 10 16 0.00 0.00
9:53 pm 21:53 Mostly Clear 77 25 70 21.1 79 79 SSW 6 9 30.12 1020 10 16 0.00 0.00
10:53 pm 22:53 Clear 76 24.4 69 20.6 79 79 Calm 30.12 1020 10 16 0.00 0.00
11:53 pm 23:53 Clear 75 23.9 70 21.1 84 84 Calm 30.11 1020 10 16 0.00 0.00

Powered by AerisWeather